Total_Precipitation_Accumulation
0.95 0.94 0.87 0.89 0.80 0.79 0.89 0.97 1.00 1.01 0.92 0.78 0.72 0.72 0.77 0.70 0.69 0.78 1.03 1.35 1.79 2.16 2.27 2.10 1.92 1.84 1.81 1.78 1.98 2.18 2.43 2.54 2.38 2.23 1.99 1.87 2.06 2.18 1.85 1.72 1.71 1.72 1.85
0.96 0.99 0.95 0.94 0.90 0.83 0.87 1.07 1.03 1.06 1.03 0.94 0.78 0.76 0.78 0.74 0.71 0.74 0.88 1.16 1.40 1.66 2.03 2.29 2.14 1.94 1.80 1.77 1.80 1.96 2.31 2.39 2.13 2.02 1.97 1.91 2.12 2.20 1.88 1.72 1.60 1.50 1.69
0.91 0.95 0.95 0.91 0.90 0.92 0.95 1.02 1.04 1.09 0.99 0.93 0.89 0.83 0.78 0.74 0.65 0.72 0.74 0.86 0.91 1.13 1.50 1.86 2.10 2.07 1.98 1.96 1.90 2.03 2.30 2.23 1.98 1.97 2.05 1.99 1.97 2.04 1.97 1.80 1.64 1.51 1.56
1.00 0.99 1.00 1.00 1.03 1.08 1.07 1.09 1.15 1.14 1.08 1.09 1.07 1.03 0.84 0.83 0.74 0.73 0.73 0.76 0.84 0.81 0.97 1.16 1.47 1.74 1.96 2.10 2.23 2.41 2.33 2.13 1.95 1.92 2.00 1.91 1.82 1.92 1.96 1.87 1.64 1.51 1.47
1.03 1.13 1.16 1.20 1.17 1.20 1.22 1.19 1.22 1.13 1.14 1.17 1.10 1.10 0.98 0.93 0.87 0.74 0.80 0.84 0.85 0.79 0.83 0.74 0.82 0.98 1.31 1.72 2.25 2.54 2.23 2.09 2.00 1.84 1.80 1.76 1.79 1.92 1.94 1.75 1.57 1.45 1.41
1.31 1.47 1.55 1.47 1.46 1.47 1.47 1.44 1.50 1.39 1.25 1.28 1.17 1.13 1.02 0.90 0.94 0.91 0.88 0.87 0.91 0.88 0.81 0.71 0.68 0.59 0.72 1.13 1.77 2.22 2.17 2.09 1.98 1.90 1.79 1.74 1.81 1.92 1.90 1.75 1.61 1.58 1.52
1.68 1.81 1.74 1.82 1.84 1.73 1.74 1.80 1.86 1.80 1.59 1.46 1.51 1.40 1.12 0.87 0.93 0.90 0.86 0.90 0.95 1.05 1.08 0.95 0.81 0.72 0.68 0.78 1.18 1.71 2.07 2.12 2.14 1.99 1.88 1.86 1.82 1.84 1.86 1.84 1.80 1.75 1.69
1.89 1.94 2.02 2.11 2.16 2.16 2.10 2.01 2.14 2.26 1.99 1.73 1.83 2.11 1.72 1.32 0.96 0.76 0.82 0.86 0.96 1.19 1.27 1.09 0.90 0.82 0.80 0.88 0.81 1.08 1.52 1.94 2.13 2.13 2.05 2.00 1.99 2.01 2.03 1.90 1.78 1.77 1.76
2.11 2.15 2.20 2.28 2.31 2.16 2.17 2.27 2.41 2.74 2.54 2.17 1.96 2.21 2.03 1.70 1.40 0.97 0.87 0.91 0.99 1.16 1.29 1.31 1.19 1.12 1.02 1.04 1.00 0.82 1.01 1.43 1.82 2.14 2.24 2.23 2.11 2.31 2.50 2.25 1.89 1.72 1.61
2.06 2.18 2.18 2.18 2.16 2.11 2.18 2.25 2.31 2.71 2.90 2.61 2.27 1.89 1.67 1.64 1.70 1.42 1.04 0.98 1.06 1.07 1.18 1.27 1.22 1.28 1.26 1.26 1.24 0.98 0.92 1.14 1.47 1.95 2.34 2.65 2.47 2.29 2.32 2.38 2.18 1.83 1.57
1.93 1.96 1.97 2.06 2.10 2.15 2.20 2.37 2.49 2.75 2.78 2.77 2.58 2.37 2.15 1.84 1.50 1.55 1.49 1.22 1.17 1.08 1.17 1.30 1.35 1.42 1.45 1.47 1.59 1.31 1.02 0.93 1.12 1.56 2.11 2.63 2.79 2.54 2.33 2.28 2.21 2.04 1.74
1.90 1.84 1.81 1.88 2.01 2.17 2.22 2.31 2.46 2.70 2.82 2.90 2.81 2.54 2.45 2.28 1.98 1.84 1.59 1.44 1.44 1.23 1.20 1.24 1.28 1.42 1.56 1.64 1.59 1.70 1.37 0.97 0.87 1.15 1.52 2.04 2.67 2.88 2.71 2.59 2.48 2.37 2.14
1.63 1.68 1.75 1.83 1.96 2.07 2.14 2.26 2.40 2.46 2.57 2.81 2.81 2.64 2.43 2.24 2.22 2.09 1.97 1.64 1.46 1.29 1.27 1.27 1.23 1.29 1.31 1.59 1.71 1.78 1.46 1.12 0.85 0.86 1.04 1.30 1.81 2.39 2.69 2.71 2.70 2.78 2.71
1.54 1.50 1.54 1.62 1.83 2.02 2.10 2.20 2.22 2.19 2.24 2.43 2.43 2.49 2.46 2.20 2.14 2.03 2.01 2.08 1.80 1.60 1.43 1.25 1.14 1.18 1.23 1.43 1.73 1.81 1.38 1.21 0.97 0.83 0.87 1.08 1.25 1.42 1.79 2.32 2.64 2.78 2.94
1.35 1.31 1.34 1.37 1.48 1.69 1.94 2.09 2.05 1.96 1.92 2.08 2.15 2.24 2.36 2.39 2.30 2.19 2.14 2.19 2.14 1.89 1.69 1.47 1.24 1.12 1.19 1.31 1.71 1.64 1.43 1.29 1.17 0.98 0.89 0.96 0.99 1.05 1.18 1.48 1.80 1.94 2.12
1.12 1.12 1.12 1.20 1.34 1.45 1.65 1.87 1.96 1.89 1.87 1.93 2.04 2.17 2.30 2.40 2.44 2.24 2.19 2.16 2.02 1.93 1.78 1.47 1.24 1.15 1.22 1.21 1.57 1.58 1.53 1.53 1.31 1.15 1.06 1.03 1.04 0.98 1.00 1.12 1.21 1.24 1.20
0.91 0.94 1.11 1.18 1.24 1.32 1.51 1.78 1.96 1.97 1.89 1.89 1.86 1.94 2.10 2.19 2.40 2.36 2.27 2.16 2.03 1.87 1.74 1.57 1.36 1.21 1.26 1.31 1.42 1.50 1.50 1.40 1.23 1.20 1.08 1.04 1.01 1.00 0.98 1.03 1.15 1.08 0.98
0.67 0.79 0.92 0.97 1.02 1.07 1.25 1.54 1.74 1.78 1.76 1.67 1.64 1.76 1.98 2.14 2.35 2.43 2.38 2.23 2.14 2.01 1.90 1.84 1.66 1.46 1.34 1.38 1.51 1.60 1.56 1.48 1.40 1.41 1.28 1.15 1.07 1.00 0.99 0.99 1.04 1.11 1.06
0.68 0.80 0.89 0.94 0.96 1.02 1.06 1.17 1.33 1.45 1.44 1.39 1.42 1.48 1.53 1.73 2.01 2.17 2.18 2.20 2.24 2.22 2.19 2.04 1.85 1.73 1.58 1.46 1.56 1.61 1.59 1.62 1.48 1.49 1.46 1.37 1.31 1.22 1.12 1.06 1.04 1.06 1.10
0.65 0.74 0.81 0.88 0.94 0.99 1.00 1.00 1.02 1.09 1.11 1.18 1.24 1.27 1.31 1.37 1.60 1.76 1.84 2.03 2.26 2.28 2.31 2.24 2.01 1.85 1.72 1.59 1.66 1.78 1.84 1.80 1.64 1.44 1.42 1.35 1.39 1.35 1.24 1.08 1.00 0.99 1.04
0.57 0.64 0.71 0.74 0.78 0.87 0.96 0.99 0.85 0.81 0.91 1.03 1.05 1.01 1.03 1.11 1.24 1.35 1.41 1.76 2.10 2.29 2.29 2.24 2.09 1.99 1.75 1.64 1.51 1.54 1.73 1.97 1.95 1.84 1.71 1.45 1.39 1.31 1.25 1.20 1.08 1.00 1.00
0.54 0.58 0.57 0.60 0.71 0.75 0.90 0.89 0.73 0.71 0.76 0.86 0.94 0.93 0.82 0.80 0.85 0.94 1.02 1.18 1.46 1.71 1.99 2.18 2.10 1.90 1.69 1.60 1.57 1.60 1.64 1.78 1.94 1.83 1.84 1.81 1.72 1.65 1.54 1.40 1.37 1.27 1.16
0.50 0.52 0.50 0.51 0.56 0.69 0.74 0.61 0.60 0.64 0.71 0.76 0.82 0.87 0.79 0.69 0.76 0.81 0.91 0.99 1.00 1.07 1.37 1.72 1.84 1.77 1.84 1.73 1.71 1.65 1.62 1.70 1.77 1.73 1.88 1.91 1.85 1.80 1.72 1.71 1.78 1.60 1.42
0.57 0.57 0.57 0.56 0.55 0.60 0.60 0.50 0.54 0.57 0.62 0.67 0.76 0.85 0.90 0.82 0.81 0.92 0.93 0.96 0.91 0.87 1.08 1.10 1.26 1.55 1.72 1.81 1.79 1.88 2.04 2.00 1.87 1.75 1.72 1.75 1.65 1.65 1.66 1.66 1.78 1.69 1.56
0.56 0.59 0.62 0.62 0.56 0.53 0.56 0.48 0.50 0.56 0.60 0.65 0.67 0.73 0.82 0.79 0.93 1.02 1.02 1.14 1.12 1.00 1.13 1.20 1.24 1.29 1.41 1.56 1.68 1.75 1.84 1.91 1.89 1.79 1.61 1.47 1.42 1.42 1.46 1.46 1.48 1.55 1.53
0.35 0.45 0.47 0.49 0.52 0.51 0.65 0.53 0.53 0.56 0.64 0.73 0.76 0.73 0.87 0.88 0.96 0.95 0.92 1.15 1.17 1.05 0.96 1.04 1.05 1.04 0.99 1.09 1.31 1.47 1.68 1.79 1.76 1.67 1.42 1.29 1.26 1.30 1.29 1.15 1.06 1.09 1.10